Regional Weather Roundup
Issued by NWS

Home | Current Version | Previous Version | Text Only | Print | Product List | Glossary Off
Versions: 1 2 3 4 5 6 7 8 9 10 11 12 13 14 15 16 17 18 19 20 21 22 23 24 25 26 27 28 29 30 31 32 33 34 35 36 37 38 39 40 41 42 43 44 45 46 47 48 49 50

666
ASUS43 KDTX 262301
RWRMI
MICHIGAN HOURLY REGIONAL WEATHER ROUNDUP
NATIONAL WEATHER SERVICE DETROIT/PONTIAC MI
700 PM EDT SAT MAY 26 2018

NOTE: "FAIR" INDICATES FEW OR NO CLOUDS BELOW 12,000 FEET WITH NO
SIGNIFICANT WEATHER AND/OR OBSTRUCTION TO VISIBILITY.

MIZ047>049-052>055-059>063-066>070-074>076-081>083-270000-
SOUTHEAST LOWER MICHIGAN

CITY           SKY/WX    TMP DP  RH WIND       PRES   REMARKS
ADRIAN         FAIR      77  67  71 S10       29.78F
ALMA           FAIR      83  64  52 SW5       29.74R
ANN ARBOR      FAIR      76  67  73 SE8       29.78S
BAD AXE        FAIR      80  61  51 CALM      29.76R
CARO           FAIR      82  62  51 S8        29.74F
DETROIT CITY   FAIR      78  63  59 S8        29.78R
DETROIT        FAIR      77  62  59 SE10      29.79R
FLINT          PTSUNNY   81  64  56 S6        29.76R
GROSSE ILE     FAIR      70  65  84 S6        29.78R
HILLSDALE      FAIR      77  63  61 S6        29.78R
HOWELL         FAIR      80  66  63 S5        29.78R

CITY           SKY/WX    TMP DP  RH WIND       PRES   REMARKS
JACKSON        PTSUNNY   80  68  66 SE7       29.77R
LAMBERTVILLE   FAIR      72  68  87 CALM      29.78F FOG
LANSING        FAIR      85  64  49 W6        29.76R
LAPEER         FAIR      80  59  49 S7        29.78R
MASON          FAIR      82  66  57 S8        29.76S
MONROE         PTSUNNY   73  65  76 SE10G16   29.78S
MT. CLEMENS    MOSUNNY   78  66  65 SE9       29.79R
PONTIAC        PTSUNNY   80  64  58 SE9       29.77S
PORT HOPE        N/A     53  52  96 E7        29.77R
PORT HURON     FAIR      79  59  50 S8        29.79R
TRI CITIES     PTSUNNY   86  65  49 S9        29.74R
MIDLAND        FAIR      83  64  54 CALM      29.73R
TROY           FAIR      81  62  51 S8        29.80R
SAGINAW HB     FAIR      82  61  47 S9        29.74S
$$
MIZ043>046-050>051-056>058-064>065-071>073-077>080-270000-
SOUTHWEST LOWER MICHIGAN

CITY           SKY/WX    TMP DP  RH WIND       PRES   REMARKS
BATTLE CREEK   FAIR      84  59  42 NW9       29.77R
BENTON HARBOR  FAIR      80  57  45 W6        29.76S
BIG RAPIDS     LGT RAIN  83  64  51 W14G21    29.73R
COLDWATER      FAIR      86  50  28 NW8       29.77R
FREMONT        FAIR      81  61  51 W6        29.75S
HOLLAND        FAIR      79  59  50 W8        29.76S
GRAND RAPIDS   FAIR      82  59  45 W13       29.75R
IONIA          FAIR      84  63  49 SW6       29.75R
KALAMAZOO      FAIR      85  59  41 W7        29.76S
LUDINGTON      FAIR      71  61  71 W6        29.74S
MARSHALL       FAIR      83  56  39 W5        29.76R
MOUNT PLEASANT FAIR      85  63  47 S5        29.72S
MUSKEGON       FAIR      74  60  61 SW6       29.76S
SOUTH HAVEN    FAIR      82  54  38 W3        29.76S
$$
MIZ016>042-270000-
NORTHERN LOWER MICHIGAN

CITY           SKY/WX    TMP DP  RH WIND       PRES   REMARKS
ALPENA         FAIR      63  61  93 SE5       29.80R
BEAVER ISLAND  FAIR      62  56  81 CALM      29.77R
BELLAIRE       FAIR      83  63  50 N3        29.75R
CADILLAC       PTSUNNY   73  61  67 E16G23    29.78R
CHARLEVOIX     FAIR      70  59  67 CALM      29.79R
FRANKFORT      FAIR      69  61  76 W6        29.75R
GAYLORD        CLOUDY    68  65  90 N5        29.80R
GRAYLING       FAIR      73  64  73 CALM      29.78R
HARBOR SPRINGS FAIR      78  61  55 E7        29.76R
HOUGHTON LAKE  LGT RAIN  65  60  84 CALM      29.78F
MANISTEE       FAIR      79  62  56 W8        29.73S
OSCODA         FAIR      56  53  91 NE5       29.79R FOG
PELLSTON       FAIR      79  60  52 E8        29.77R
ROGERS CITY    FAIR      76  59  57 SE6       29.79R
TRAVERSE CITY  FAIR      66  57  72 NE12      29.74R
$$
MIZ007>008-015-270000-
EASTERN UPPER MICHIGAN

CITY           SKY/WX    TMP DP  RH WIND       PRES   REMARKS
KINROSS        FAIR      74  62  66 SE14      29.77R
MACKINAC ISLAN FAIR      62  55  77 E8        29.78R
NEWBERRY       FAIR      72  62  70 S9        29.75S
S. S. MARIE    FAIR      75  62  64 E9        29.76R
$$
MIZ004>006-011>014-085-270000-
CENTRAL UPPER MICHIGAN

CITY           SKY/WX    TMP DP  RH WIND       PRES   REMARKS
MANISTIQUE     FAIR      65  63  94 W3        29.75S
ESCANABA       LGT RAIN  63  61  93 W3        29.77R
MENOMINEE      FAIR      71  60  68 E16G22    29.68S
SAWYER-GWINN   PTSUNNY   70  63  78 S12       29.74F
$$
MIZ001>003-009>011-084-270000-
WESTERN UPPER MICHIGAN

CITY           SKY/WX    TMP DP  RH WIND       PRES   REMARKS
IRON MOUNTAIN  FAIR      73  61  65 NE10G20   29.73R
HOUGHTON       FAIR      75  58  55 E6        29.69S
COPPER HARBOR    N/A     44  40  85 N5        29.73R
IRONWOOD       FAIR      84  53  34 W7        29.68R
$$

ABBREVIATIONS USED IN REMARKS
   TC - TEMPERATURE IN CELSIUS
  WCI - WIND CHILL INDEX
   HX - HEAT INDEX
  VSB - VISIBILITY





USA.gov is the U.S. government's official web portal to all federal, state and local government web resources and services.